Change the Weather History Date:

Friday, December 14, 2012

  Actual Average (KCHS) Record (KCHS)
Temperature  
Mean Temperature 51 °F 51 °F  
Max Temperature 60 °F 62 °F 80 °F (2007)
Min Temperature 42 °F 40 °F 17 °F (1960)
Degree Days  
Heating Degree Days 14 14  
Month to date heating degree days 178  
Since 1 July heating degree days 470  
Cooling Degree Days 0 0  
Month to date cooling degree days 0  
Year to date cooling degree days 2297  
Growing Degree Days 1 (Base 50)    
Moisture  
Dew Point 43 °F    
Average Humidity 75    
Maximum Humidity 93    
Minimum Humidity 48    
Precipitation  
Precipitation 0.00 in 0.10 in 1.79 in (1977)
Month to date precipitation 1.31  
Year to date precipitation 49.23  
Sea Level Pressure  
Sea Level Pressure 30.29 in    
Wind  
Wind Speed 7 mph (North)    
Max Wind Speed 13 mph    
Max Gust Speed -    
Visibility 10 miles    
Events      
T = Trace of Precipitation, MM = Missing Value Source: NWS Daily Summary

Daily Weather History Graph

Daily Weather History Graph

Search for Another Location

Airport or City:

Trip Planner

Search our weather history database for the weather conditions in past years. The results will help you decide how hot, cold, wet, or windy it might be!

Date:

Astronomy

Dec. 14, 2012 Rise Set
Actual Time 7:14 AM EST 5:15 PM EST
Civil Twilight 6:47 AM EST 5:42 PM EST
Nautical Twilight 6:16 AM EST 6:13 PM EST
Astronomical Twilight 5:46 AM EST 6:43 PM EST
Moon 8:20 AM EST (12/14) 7:02 PM EST (12/14)
Length of Visible Light 10h 55m
Length of Day
10h 01m
Waxing Crescent, 3% of the Moon is Illuminated
Dec 14
Waxing Crescent
Dec 20
First Quarter
Dec 28
Full
Jan 4
Last Quarter
Jan 11
New

Hourly Weather History & Observations

Time (EST) Temp. Windchill Dew Point Humidity Pressure Visibility Wind Dir Wind Speed Gust Speed Precip Events Conditions
12:15 AM 48.2 °F - 42.8 °F 82% 30.30 in 10.0 mi NNE 8.1 mph - 0.00 in   Overcast
12:55 AM 48.2 °F - 42.8 °F 82% 30.31 in 10.0 mi North 8.1 mph - 0.00 in   Overcast
2:15 AM 46.4 °F 42.4 °F 42.8 °F 87% 30.30 in 10.0 mi North 8.1 mph - 0.00 in   Overcast
2:55 AM 46.4 °F 43.5 °F 41.0 °F 81% 30.29 in 10.0 mi North 5.8 mph - 0.00 in   Overcast
3:15 AM 46.4 °F 43.5 °F 41.0 °F 81% 30.30 in 10.0 mi North 5.8 mph - 0.00 in   Overcast
3:35 AM 46.4 °F 42.4 °F 42.8 °F 87% 30.29 in 10.0 mi North 8.1 mph - 0.00 in   Overcast
3:55 AM 46.4 °F 42.9 °F 42.8 °F 87% 30.28 in 10.0 mi North 6.9 mph - 0.00 in   Overcast
4:15 AM 46.4 °F 42.9 °F 42.8 °F 87% 30.28 in 10.0 mi North 6.9 mph - 0.00 in   Overcast
4:55 AM 44.6 °F 41.4 °F 41.0 °F 87% 30.28 in 10.0 mi NNW 5.8 mph - 0.00 in   Overcast
5:15 AM 46.4 °F 42.9 °F 42.8 °F 87% 30.29 in 10.0 mi North 6.9 mph - 0.00 in   Overcast
5:35 AM 46.4 °F 43.5 °F 42.8 °F 87% 30.30 in 10.0 mi North 5.8 mph - 0.00 in   Overcast
5:55 AM 46.4 °F 44.3 °F 42.8 °F 87% 30.30 in 10.0 mi NNW 4.6 mph - 0.00 in   Overcast
6:15 AM 46.4 °F 42.9 °F 42.8 °F 87% 30.30 in 10.0 mi North 6.9 mph - 0.00 in   Overcast
6:35 AM 46.4 °F 42.4 °F 42.8 °F 87% 30.32 in 10.0 mi North 8.1 mph - 0.00 in   Overcast
6:55 AM 46.4 °F 41.9 °F 42.8 °F 87% 30.33 in 7.0 mi North 9.2 mph - 0.00 in   Overcast
7:15 AM 44.6 °F 39.7 °F 42.8 °F 93% 30.34 in 7.0 mi North 9.2 mph - 0.00 in   Overcast
7:35 AM 44.6 °F 39.7 °F 41.0 °F 87% 30.34 in 7.0 mi North 9.2 mph - 0.00 in   Overcast
7:55 AM 42.8 °F 36.6 °F 39.2 °F 87% 30.33 in 8.0 mi North 11.5 mph - 0.00 in   Mostly Cloudy
8:15 AM 42.8 °F 37.5 °F 39.2 °F 87% 30.34 in 8.0 mi North 9.2 mph - 0.00 in   Clear
8:35 AM 44.6 °F 39.2 °F 39.2 °F 81% 30.35 in 10.0 mi North 10.4 mph - 0.00 in   Clear
8:55 AM 44.6 °F 39.7 °F 39.2 °F 81% 30.35 in 10.0 mi North 9.2 mph - 0.00 in   Clear
9:15 AM 46.4 °F 41.1 °F 39.2 °F 76% 30.36 in 10.0 mi North 11.5 mph - 0.00 in   Clear
9:35 AM 46.4 °F 41.1 °F 37.4 °F 71% 30.37 in 10.0 mi North 11.5 mph - 0.00 in   Clear
9:55 AM 48.2 °F - 37.4 °F 66% 30.37 in 10.0 mi NNE 12.7 mph - 0.00 in   Clear
10:15 AM 50.0 °F - 39.2 °F 66% 30.37 in 10.0 mi North 9.2 mph - 0.00 in   Clear
10:35 AM 51.8 °F - 39.2 °F 62% 30.37 in 10.0 mi North 12.7 mph - 0.00 in   Clear
10:55 AM 51.8 °F - 41.0 °F 67% 30.37 in 10.0 mi North 9.2 mph - 0.00 in   Clear
11:15 AM 53.6 °F - 39.2 °F 58% 30.36 in 10.0 mi North 10.4 mph - 0.00 in   Clear
11:35 AM 53.6 °F - 41.0 °F 62% 30.35 in 10.0 mi North 8.1 mph - 0.00 in   Clear
11:55 AM 53.6 °F - 41.0 °F 62% 30.34 in 10.0 mi North 8.1 mph - 0.00 in   Clear
12:15 PM 55.4 °F - 42.8 °F 63% 30.32 in 10.0 mi North 8.1 mph - 0.00 in   Clear
12:35 PM 57.2 °F - 42.8 °F 59% 30.31 in 10.0 mi North 6.9 mph - 0.00 in   Clear
12:55 PM 59.0 °F - 42.8 °F 55% 30.30 in 10.0 mi NNW 6.9 mph - 0.00 in   Clear
1:15 PM 59.0 °F - 42.8 °F 55% 30.29 in 10.0 mi North 9.2 mph - 0.00 in   Clear
1:35 PM 59.0 °F - 42.8 °F 55% 30.28 in 10.0 mi NNE 9.2 mph - 0.00 in   Clear
1:55 PM 59.0 °F - 41.0 °F 51% 30.26 in 10.0 mi NNE 10.4 mph - 0.00 in   Clear
2:15 PM 60.8 °F - 41.0 °F 48% 30.25 in 10.0 mi NNE 9.2 mph - 0.00 in   Clear
2:35 PM 60.8 °F - 42.8 °F 52% 30.24 in 10.0 mi NNE 8.1 mph - 0.00 in   Clear
2:55 PM 60.8 °F - 42.8 °F 52% 30.23 in 10.0 mi North 6.9 mph - 0.00 in   Clear
3:15 PM 60.8 °F - 42.8 °F 52% 30.23 in 10.0 mi North 8.1 mph - 0.00 in   Clear
3:35 PM 60.8 °F - 41.0 °F 48% 30.22 in 10.0 mi NNE 5.8 mph - 0.00 in   Clear
3:55 PM 60.8 °F - 41.0 °F 48% 30.22 in 10.0 mi NNE 6.9 mph - 0.00 in   Clear
4:15 PM 59.0 °F - 46.4 °F 63% 30.22 in 10.0 mi ENE 3.5 mph - 0.00 in   Clear
4:35 PM 57.2 °F - 46.4 °F 67% 30.22 in 10.0 mi Calm Calm - 0.00 in   Clear
4:55 PM 55.4 °F - 46.4 °F 72% 30.23 in 10.0 mi East 5.8 mph - 0.00 in   Clear
5:15 PM 53.6 °F - 46.4 °F 77% 30.23 in 10.0 mi Calm Calm - 0.00 in   Clear
5:35 PM 53.6 °F - 46.4 °F 77% 30.23 in 10.0 mi Calm Calm - 0.00 in   Clear
5:55 PM 51.8 °F - 46.4 °F 82% 30.24 in 10.0 mi Calm Calm - 0.00 in   Clear
6:15 PM 51.8 °F - 46.4 °F 82% 30.24 in 10.0 mi Calm Calm - 0.00 in   Clear
6:35 PM 50.0 °F - 46.4 °F 87% 30.24 in 10.0 mi Calm Calm - 0.00 in   Clear
6:55 PM 51.8 °F - 46.4 °F 82% 30.25 in 10.0 mi Calm Calm - 0.00 in   Clear
7:35 PM 48.2 °F - 46.4 °F 93% 30.25 in 10.0 mi Calm Calm - 0.00 in   Clear
7:55 PM 46.4 °F - 44.6 °F 93% 30.25 in 10.0 mi Calm Calm - 0.00 in   Clear
8:35 PM 46.4 °F - 44.6 °F 93% 30.25 in 10.0 mi Calm Calm - 0.00 in   Clear
8:55 PM 46.4 °F 44.3 °F 44.6 °F 93% 30.26 in 10.0 mi NNW 4.6 mph - 0.00 in   Clear
9:15 PM 48.2 °F - 44.6 °F 87% 30.24 in 10.0 mi NNW 6.9 mph - 0.00 in   Clear
9:55 PM 51.8 °F - 44.6 °F 76% 30.24 in 10.0 mi Calm Calm - 0.00 in   Mostly Cloudy
10:15 PM 51.8 °F - 44.6 °F 76% 30.25 in 10.0 mi Calm Calm - 0.00 in   Mostly Cloudy
10:35 PM 51.8 °F - 44.6 °F 76% 30.24 in 10.0 mi Calm Calm - 0.00 in   Overcast
10:55 PM 51.8 °F - 44.6 °F 76% 30.24 in 10.0 mi Calm Calm - 0.00 in   Mostly Cloudy
11:15 PM 53.6 °F - 44.6 °F 72% 30.25 in 10.0 mi North 4.6 mph - 0.00 in   Overcast
11:35 PM 53.6 °F - 44.6 °F 72% 30.24 in 10.0 mi North 5.8 mph - 0.00 in   Overcast
11:55 PM 53.6 °F - 44.6 °F 72% 30.23 in 10.0 mi North 3.5 mph - 0.00 in   Overcast